Auburn, AL

10:13 AM CST on November 21, 2019 (GMT -0600)
Auburn-opelika-pitts

Weather History for KAUO - June, 2019

Change the Weather History Date:

Monday, June 3, 2019

  Actual Average Record
Temperature  
Mean Temperature 82 °F -  
Max Temperature 93 °F - 100 °F (2011)
Min Temperature 70 °F - 46 °F (1972)
Cooling Degree Days 17    
Month to date cooling degree days 43  
Year to date cooling degree days 459  
Since 1 June cooling degree days 43  
Growing Degree Days 31 (Base 50)    
Moisture  
Dew Point 64 °F    
Average Humidity 58    
Maximum Humidity 96    
Minimum Humidity 31    
Precipitation  
Precipitation 0.00 in - 2.27 in (2003)
Month to date precipitation 0.00  
Year to date precipitation 20.46  
Sea Level Pressure  
Sea Level Pressure 30.02 in    
Wind  
Wind Speed 7 mph (NNW)    
Max Wind Speed 12 mph    
Max Gust Speed 17 mph    
Visibility 10 miles    
Events      
T = Trace of Precipitation, MM = Missing Value Source: NWS Daily Summary

Daily Weather History Graph

Daily Weather History Graph

Search for Another Location

Airport or City:

Astronomy

Jun. 03, 2019 Rise Set
Actual Time 5:34 AM CDT 7:45 PM CDT
Civil Twilight 5:06 AM CDT 8:13 PM CDT
Nautical Twilight 4:32 AM CDT 8:48 PM CDT
Astronomical Twilight 3:54 AM CDT 9:25 PM CDT
Moon 5:51 AM CDT (6/3) 8:11 PM CDT (6/3)
Length of Visible Light 15h 07m
Length of Day
14h 10m
New Moon, 0% of the Moon is Illuminated
Jun 3
New Moon
Jun 10
First Quarter
Jun 17
Full
Jun 25
Last Quarter
Jul 2
New

Hourly Weather History & Observations

Time (CDT) Temp. Heat Index Dew Point Humidity Pressure Visibility Wind Dir Wind Speed Gust Speed Precip Events Conditions
12:56 AM 75.9 °F - 66.0 °F 71% 29.96 in 10.0 mi WNW 3.5 mph - N/A   Clear
1:56 AM 75.0 °F - 64.9 °F 71% 29.95 in 10.0 mi NW 4.6 mph - N/A   Clear
2:56 AM 72.0 °F - 68.0 °F 87% 29.96 in 10.0 mi NW 3.5 mph - N/A   Clear
3:56 AM 71.1 °F - 70.0 °F 96% 29.97 in 10.0 mi NNW 5.8 mph - N/A   Clear
4:56 AM 71.1 °F - 69.1 °F 93% 29.99 in 10.0 mi North 4.6 mph - N/A   Clear
5:56 AM 71.1 °F - 70.0 °F 96% 30.01 in 10.0 mi NNW 6.9 mph - N/A   Clear
6:56 AM 73.9 °F - 69.1 °F 85% 30.02 in 10.0 mi NNW 4.6 mph - N/A   Clear
7:56 AM 78.1 °F - 66.9 °F 68% 30.04 in 10.0 mi NNE 6.9 mph - N/A   Clear
8:56 AM 82.9 °F 85.8 °F 68.0 °F 60% 30.05 in 10.0 mi NE 5.8 mph - N/A   Clear
9:56 AM 84.9 °F 87.6 °F 66.9 °F 55% 30.06 in 10.0 mi NNW 8.1 mph - N/A   Clear
10:56 AM 87.1 °F 88.9 °F 64.9 °F 48% 30.06 in 10.0 mi NW 11.5 mph - N/A   Clear
11:56 AM 89.1 °F 90.3 °F 64.0 °F 43% 30.05 in 10.0 mi Variable 6.9 mph - N/A   Clear
12:56 PM 89.1 °F 89.0 °F 61.0 °F 39% 30.04 in 10.0 mi NW 10.4 mph - N/A   Clear
1:56 PM 91.0 °F 90.5 °F 60.1 °F 35% 30.03 in 10.0 mi North 10.4 mph - N/A   Clear
2:56 PM 91.9 °F 92.5 °F 62.1 °F 37% 30.01 in 10.0 mi NW 11.5 mph 17.3 mph N/A   Clear
3:56 PM 91.0 °F 90.5 °F 60.1 °F 35% 30.01 in 10.0 mi Variable 4.6 mph - N/A   Clear
4:56 PM 91.0 °F 89.7 °F 57.0 °F 32% 30.01 in 10.0 mi NW 11.5 mph - N/A   Clear
5:56 PM 90.0 °F 88.1 °F 55.9 °F 31% 29.99 in 10.0 mi NNW 8.1 mph - N/A   Clear
6:56 PM 88.0 °F 86.9 °F 57.9 °F 36% 30.01 in 10.0 mi North 5.8 mph - N/A   Clear
7:56 PM 82.9 °F 83.3 °F 61.0 °F 47% 30.03 in 10.0 mi North 3.5 mph - N/A   Clear
8:56 PM 81.0 °F 81.9 °F 62.1 °F 52% 30.04 in 10.0 mi North 4.6 mph - N/A   Clear
9:56 PM 78.1 °F - 62.1 °F 58% 30.06 in 10.0 mi NNE 5.8 mph - N/A   Clear
10:56 PM 75.9 °F - 61.0 °F 60% 30.07 in 10.0 mi NNE 5.8 mph - N/A   Clear
11:56 PM 75.0 °F - 61.0 °F 62% 30.07 in 10.0 mi NNE 5.8 mph - N/A   Clear